G6UYG-13 Weather Reports


Display with metric or nautical units.
time (UTC)temp
F
wind
direction
speed
MPH
gust
MPH
rain 1hr
in
rain 24hr
in
rain mn
in
humidity
%
barometer
mb
20260507181423 54 207 1.0 7.0 0.00 0.00 0.00 74 1012.1
20260507180723 54 178 1.0 3.0 0.00 0.00 0.00 75 1012.1
20260507180023 54 207 1.0 4.0 0.00 0.00 0.00 75 1012.1
20260507175323 54 217 1.0 5.0 0.00 0.00 0.00 75 1012.0
20260507174824 54 231 1.0 5.0 0.00 0.00 0.00 75 1012.0
20260507174623 54 231 1.0 5.0 0.00 0.00 0.00 75 1012.0
20260507173923 53 171 1.0 5.0 0.00 0.00 0.00 74 1012.1
20260507173223 53 190 2.0 5.0 0.00 0.00 0.00 74 1012.2
20260507172523 53 180 2.0 9.0 0.00 0.00 0.00 73 1012.1
20260507171823 53 185 1.0 8.0 0.00 0.00 0.00 74 1012.1
20260507171123 53 161 1.0 5.0 0.00 0.00 0.00 74 1012.1
20260507170423 53 185 1.0 4.0 0.00 0.00 0.00 74 1012.1
20260507165724 53 180 1.0 6.0 0.00 0.00 0.00 76 1012.1
20260507165024 53 174 2.0 9.0 0.00 0.00 0.00 77 1012.2
20260507164324 54 192 1.0 5.0 0.00 0.00 0.00 76 1012.1
20260507163624 54 188 2.0 5.0 0.00 0.00 0.00 76 1012.2
20260507163021 55 215 2.0 9.0 0.00 0.00 0.00 75 1012.2
20260507162924 55 215 2.0 9.0 0.00 0.00 0.00 75 1012.2
20260507162224 55 209 2.0 12.0 0.00 0.00 0.00 74 1012.2
20260507161524 56 184 4.0 10.0 0.00 0.00 0.00 70 1012.1
20260507161148 56 185 4.0 7.0 0.00 0.00 0.00 68 1012.1
20260507160824 56 185 4.0 7.0 0.00 0.00 0.00 68 1012.1
20260507160310 57 181 3.0 7.0 0.00 0.00 0.00 63 1012.0
20260507160124 57 181 3.0 7.0 0.00 0.00 0.00 63 1012.0
20260507155424 58 196 2.0 11.0 0.00 0.00 0.00 63 1012.0
20260507154724 58 211 2.0 8.0 0.00 0.00 0.00 61 1012.0
20260507154024 58 217 2.0 3.0 0.00 0.00 0.00 60 1011.9
20260507153958 59 202 2.0 5.0 0.00 0.00 0.00 60 1012.0
20260507153324 59 202 2.0 5.0 0.00 0.00 0.00 60 1012.0
20260507152624 59 217 1.0 6.0 0.00 0.00 0.00 59 1012.0
20260507152026 59 174 1.0 9.0 0.00 0.00 0.00 59 1012.1
20260507151924 59 174 1.0 9.0 0.00 0.00 0.00 59 1012.1
20260507151224 58 192 1.0 6.0 0.00 0.00 0.00 60 1012.0
20260507150524 58 211 1.0 3.0 0.00 0.00 0.00 60 1012.0
20260507145824 58 194 1.0 1.0 0.00 0.00 0.00 60 1012.1
20260507145124 58 187 1.0 4.0 0.00 0.00 0.00 59 1012.1
20260507144424 58 196 1.0 7.0 0.00 0.00 0.00 59 1012.2
20260507143724 59 138 1.0 4.0 0.00 0.00 0.00 58 1012.2
20260507143025 59 178 1.0 5.0 0.00 0.00 0.00 58 1012.3
20260507142324 59 203 1.0 6.0 0.00 0.00 0.00 59 1012.3
20260507141624 59 211 1.0 6.0 0.00 0.00 0.00 59 1012.4
20260507140924 59 232 1.0 4.0 0.00 0.00 0.00 59 1012.4
20260507140224 59 184 2.0 7.0 0.00 0.00 0.00 59 1012.6
20260507135524 59 176 2.0 4.0 0.00 0.00 0.00 59 1012.6
20260507134824 59 192 2.0 4.0 0.00 0.00 0.00 60 1012.6
20260507134124 59 188 3.0 7.0 0.00 0.00 0.00 58 1012.6
20260507133424 59 185 3.0 8.0 0.00 0.00 0.00 58 1012.7
20260507132724 59 157 3.0 8.0 0.00 0.00 0.00 56 1012.7
20260507132024 59 192 3.0 10.0 0.00 0.00 0.00 55 1012.8
20260507131324 60 236 3.0 4.0 0.00 0.00 0.00 54 1012.7
20260507130624 60 184 4.0 11.0 0.00 0.00 0.00 53 1012.7
20260507125924 61 242 3.0 9.0 0.00 0.00 0.00 53 1012.7
20260507125224 60 176 3.0 7.0 0.00 0.00 0.00 55 1012.6
20260507124524 60 178 2.0 9.0 0.00 0.00 0.00 53 1012.7
20260507123824 61 167 3.0 6.0 0.00 0.00 0.00 53 1012.7
20260507123124 61 168 4.0 13.0 0.00 0.00 0.00 53 1012.8
20260507122424 60 181 2.0 7.0 0.00 0.00 0.00 54 1012.8
20260507121725 60 230 2.0 8.0 0.00 0.00 0.00 54 1012.9
20260507121720 60 190 3.0 8.0 0.00 0.00 0.00 54 1013.0
20260507121024 60 190 3.0 8.0 0.00 0.00 0.00 54 1013.0
20260507120325 59 183 3.0 12.0 0.00 0.00 0.00 54 1013.1
20260507115625 59 136 4.0 12.0 0.00 0.00 0.00 53 1013.1
20260507114925 58 178 4.0 11.0 0.00 0.00 0.00 56 1013.1
20260507114225 58 161 3.0 10.0 0.00 0.00 0.00 56 1013.1
20260507113525 58 198 3.0 11.0 0.00 0.00 0.00 57 1013.2
20260507112825 57 227 0.0 8.0 0.00 0.00 0.00 61 1013.3
20260507112522 57 132 1.0 0.0 0.00 0.00 0.00 64 1013.3
20260507112125 57 132 1.0 0.0 0.00 0.00 0.00 64 1013.3
20260507111425 56 164 1.0 5.0 0.00 0.00 0.00 69 1013.3
20260507110725 56 168 1.0 5.0 0.00 0.00 0.00 69 1013.4
20260507110025 55 169 1.0 5.0 0.00 0.00 0.00 70 1013.4
20260507105325 55 198 1.0 5.0 0.00 0.00 0.00 71 1013.5
20260507104625 54 187 1.0 4.0 0.00 0.00 0.00 72 1013.6
20260507103925 54 202 1.0 2.0 0.00 0.00 0.00 73 1013.6
20260507103225 53 115 1.0 2.0 0.00 0.00 0.00 73 1013.6
20260507102525 53 201 1.0 4.0 0.00 0.00 0.00 75 1013.7
20260507101825 52 192 2.0 7.0 0.00 0.00 0.00 75 1013.8
20260507101125 52 173 1.0 4.0 0.00 0.00 0.00 77 1013.8
20260507100425 51 130 1.0 3.0 0.00 0.00 0.00 78 1013.8
20260507095725 50 163 1.0 7.0 0.00 0.00 0.00 79 1013.8
20260507095025 50 120 1.0 3.0 0.00 0.00 0.00 79 1013.8
20260507094325 50 188 1.0 3.0 0.00 0.00 0.00 79 1013.7
20260507093626 49 222 1.0 3.0 0.00 0.00 0.00 80 1013.7
20260507092925 49 186 1.0 4.0 0.00 0.00 0.00 80 1013.7
20260507092225 49 171 1.0 6.0 0.00 0.00 0.00 81 1013.7
20260507091525 49 157 1.0 4.0 0.00 0.00 0.00 81 1013.7
20260507090825 48 188 2.0 5.0 0.00 0.00 0.00 81 1013.8
20260507090125 48 173 2.0 7.0 0.00 0.00 0.00 82 1013.8
20260507085425 48 181 2.0 6.0 0.00 0.00 0.00 83 1013.8
20260507084725 48 169 2.0 5.0 0.00 0.00 0.00 83 1013.7
20260507084025 47 170 2.0 5.0 0.00 0.00 0.00 84 1013.8
20260507083325 47 166 2.0 5.0 0.00 0.00 0.00 84 1013.8
20260507082625 47 207 2.0 5.0 0.00 0.00 0.00 85 1013.8
20260507081925 47 178 2.0 8.0 0.00 0.00 0.00 86 1013.8
20260507081225 47 183 2.0 7.0 0.00 0.00 0.00 86 1013.8
20260507080525 47 203 2.0 4.0 0.00 0.00 0.00 86 1013.8
20260507075825 46 165 1.0 3.0 0.00 0.00 0.00 87 1013.8
20260507075125 46 207 1.0 4.0 0.00 0.00 0.00 86 1013.8
20260507074425 46 174 1.0 3.0 0.00 0.00 0.00 87 1013.7
20260507073725 46 173 0.0 3.0 0.00 0.00 0.00 87 1013.7
20260507073025 46 155 0.0 2.0 0.00 0.00 0.00 87 1013.7
20260507072326 46 175 0.0 3.0 0.00 0.00 0.00 88 1013.7
20260507071626 46 178 1.0 4.0 0.00 0.00 0.00 88 1013.6
20260507070926 46 174 1.0 1.0 0.00 0.00 0.00 88 1013.6
20260507070226 45 177 0.0 4.0 0.00 0.00 0.00 88 1013.5
20260507065526 45 148 0.0 1.0 0.00 0.00 0.00 88 1013.5
20260507064826 45 127 1.0 3.0 0.00 0.00 0.00 88 1013.4
20260507064126 45 166 1.0 4.0 0.00 0.00 0.00 88 1013.5
20260507063426 45 158 1.0 6.0 0.00 0.00 0.00 88 1013.4
20260507062726 45 167 1.0 4.0 0.00 0.00 0.00 88 1013.4
20260507062026 45 224 1.0 3.0 0.00 0.00 0.00 88 1013.4
20260507061326 45 144 1.0 2.0 0.00 0.00 0.00 88 1013.4
20260507060626 45 183 1.0 1.0 0.00 0.00 0.00 88 1013.3
20260507055926 45 188 0.0 3.0 0.00 0.00 0.00 88 1013.3
20260507055226 45 175 1.0 3.0 0.00 0.00 0.00 88 1013.4
20260507054526 45 177 1.0 0.0 0.00 0.00 0.00 88 1013.3
20260507053826 45 172 1.0 2.0 0.00 0.00 0.00 88 1013.3
20260507053126 45 168 1.0 5.0 0.00 0.00 0.00 88 1013.3
20260507052426 45 190 1.0 2.0 0.00 0.00 0.00 88 1013.3
20260507051726 45 139 1.0 3.0 0.00 0.00 0.00 88 1013.3
20260507051026 45 152 1.0 3.0 0.00 0.00 0.00 88 1013.3
20260507050326 45 167 1.0 4.0 0.00 0.00 0.00 88 1013.3
20260507045626 45 162 1.0 3.0 0.00 0.00 0.00 88 1013.3
20260507044926 45 141 0.0 2.0 0.00 0.00 0.00 88 1013.2
20260507044226 45 144 0.0 4.0 0.00 0.00 0.00 88 1013.2
20260507043526 45 165 0.0 0.0 0.00 0.00 0.00 88 1013.2
20260507042826 45 169 0.0 0.0 0.00 0.00 0.00 88 1013.2
20260507042126 45 170 0.0 0.0 0.00 0.00 0.00 87 1013.2
20260507041426 45 171 0.0 0.0 0.00 0.00 0.00 87 1013.2
20260507040726 45 171 0.0 0.0 0.00 0.00 0.00 87 1013.2
20260507040026 45 171 0.0 2.0 0.00 0.00 0.00 87 1013.2
20260507035326 45 171 0.0 2.0 0.00 0.00 0.00 87 1013.2
20260507034626 45 169 0.0 2.0 0.00 0.00 0.00 87 1013.2
20260507033926 45 169 1.0 4.0 0.00 0.00 0.00 87 1013.2
20260507033226 45 166 1.0 3.0 0.00 0.00 0.00 86 1013.3
20260507032526 45 170 0.0 2.0 0.00 0.00 0.00 86 1013.3
20260507031826 45 184 0.0 2.0 0.00 0.00 0.00 86 1013.2
20260507031126 45 179 0.0 1.0 0.00 0.00 0.00 86 1013.3
20260507030426 45 178 1.0 4.0 0.00 0.00 0.00 86 1013.3
20260507025726 45 163 1.0 5.0 0.00 0.00 0.00 86 1013.3
20260507025026 45 163 0.0 2.0 0.00 0.00 0.00 86 1013.4
20260507024327 45 156 0.0 1.0 0.00 0.00 0.00 86 1013.4
20260507023627 45 154 1.0 3.0 0.00 0.00 0.00 86 1013.3
20260507022927 45 140 1.0 2.0 0.00 0.00 0.00 86 1013.3
20260507022227 45 113 1.0 6.0 0.00 0.00 0.00 85 1013.3
20260507021527 45 177 0.0 2.0 0.00 0.00 0.00 86 1013.3
20260507020827 45 171 0.0 1.0 0.00 0.00 0.00 85 1013.4
20260507020127 45 166 1.0 2.0 0.00 0.00 0.00 85 1013.4
20260507015427 45 161 1.0 3.0 0.00 0.00 0.00 85 1013.4
20260507014727 45 176 1.0 3.0 0.00 0.00 0.00 85 1013.5
20260507014027 45 175 1.0 3.0 0.00 0.00 0.00 85 1013.5
20260507013327 45 175 1.0 4.0 0.00 0.00 0.00 85 1013.4
20260507012627 45 108 0.0 6.0 0.00 0.00 0.00 85 1013.4
20260507011927 45 178 1.0 3.0 0.00 0.00 0.00 85 1013.5
20260507011227 46 173 1.0 4.0 0.00 0.00 0.00 85 1013.5
20260507010527 46 195 1.0 5.0 0.00 0.00 0.00 85 1013.4
20260507005827 46 153 1.0 3.0 0.00 0.00 0.00 84 1013.6
20260507005127 46 162 1.0 4.0 0.00 0.00 0.00 84 1013.6
20260507004427 46 139 1.0 3.0 0.00 0.00 0.00 84 1013.6
20260507003727 46 169 1.0 4.0 0.00 0.00 0.00 84 1013.4
20260507003027 46 104 1.0 5.0 0.00 0.00 0.00 84 1013.5
20260507002327 46 158 1.0 3.0 0.00 0.00 0.00 83 1013.6
20260507001627 46 167 0.0 5.0 0.00 0.00 0.00 84 1013.6
20260507000927 46 140 0.0 1.0 0.00 0.00 0.00 83 1013.6
20260507000227 46 139 1.0 2.0 0.00 0.00 0.00 83 1013.6
20260506235527 46 165 0.0 3.0 0.00 0.00 0.00 83 1013.6
20260506234827 46 167 1.0 5.0 0.00 0.00 0.00 82 1013.7
20260506234127 46 170 1.0 2.0 0.00 0.00 0.00 82 1013.6
20260506233427 46 186 1.0 3.0 0.00 0.00 0.00 82 1013.6
20260506232727 46 173 1.0 5.0 0.00 0.00 0.00 82 1013.6
20260506232027 46 159 1.0 3.0 0.00 0.00 0.00 81 1013.6
20260506231327 46 157 1.0 4.0 0.00 0.00 0.00 81 1013.6
20260506230627 46 152 1.0 3.0 0.00 0.00 0.00 81 1013.6
20260506225927 47 106 1.0 3.0 0.00 0.00 0.00 80 1013.6
20260506225227 47 142 1.0 2.0 0.00 0.00 0.00 80 1013.5
20260506224527 47 184 1.0 5.0 0.00 0.00 0.00 80 1013.5
20260506223827 47 180 0.0 1.0 0.00 0.00 0.00 79 1013.6
20260506223127 47 179 1.0 3.0 0.00 0.00 0.00 79 1013.6
20260506222427 47 131 1.0 3.0 0.00 0.00 0.00 79 1013.6
20260506221727 47 186 1.0 4.0 0.00 0.00 0.00 78 1013.5
20260506221027 47 181 1.0 5.0 0.00 0.00 0.00 78 1013.4
20260506220327 47 186 1.0 4.0 0.00 0.00 0.00 78 1013.4
20260506215628 47 192 0.0 3.0 0.00 0.00 0.00 78 1013.4
20260506214928 47 164 0.0 4.0 0.00 0.00 0.00 78 1013.3
20260506214228 47 167 0.0 3.0 0.00 0.00 0.00 78 1013.3
20260506213528 47 164 0.0 2.0 0.00 0.00 0.00 77 1013.2
20260506212828 47 163 0.0 2.0 0.00 0.00 0.00 77 1013.2
20260506212128 47 158 0.0 2.0 0.00 0.00 0.00 77 1013.1
20260506211428 47 158 0.0 4.0 0.00 0.00 0.00 76 1013.0
20260506210728 48 138 0.0 2.0 0.00 0.00 0.00 76 1012.9
20260506210028 48 166 0.0 2.0 0.00 0.00 0.00 75 1013.0
20260506205328 48 166 0.0 3.0 0.00 0.00 0.00 74 1012.9
20260506204628 49 161 0.0 1.0 0.00 0.00 0.00 73 1012.9
20260506203928 49 161 0.0 2.0 0.00 0.00 0.00 73 1012.8
20260506203228 49 157 0.0 0.0 0.00 0.00 0.00 72 1012.8
20260506202528 50 157 0.0 2.0 0.00 0.00 0.00 71 1012.7
20260506201828 50 159 0.0 3.0 0.00 0.00 0.00 70 1012.7
20260506201128 50 199 0.0 3.0 0.00 0.00 0.00 68 1012.5
20260506200428 51 161 1.0 4.0 0.00 0.00 0.00 67 1012.4
20260506195728 51 163 1.0 5.0 0.00 0.00 0.00 66 1012.5
20260506195028 51 174 2.0 4.0 0.00 0.00 0.00 65 1012.4
20260506194328 52 103 1.0 4.0 0.00 0.00 0.00 64 1012.4
20260506193628 52 148 1.0 4.0 0.00 0.00 0.00 63 1012.2
20260506192928 52 150 1.0 4.0 0.00 0.00 0.00 63 1012.2
20260506192228 52 154 1.0 4.0 0.00 0.00 0.00 61 1012.1
20260506191528 53 153 0.0 3.0 0.00 0.00 0.00 61 1012.1
20260506190828 53 150 1.0 3.0 0.00 0.00 0.00 60 1012.1
20260506190128 53 153 1.0 2.0 0.00 0.00 0.00 59 1012.0
20260506185428 53 117 2.0 4.0 0.00 0.00 0.00 57 1012.1
20260506184728 53 179 1.0 5.0 0.00 0.00 0.00 56 1012.0
20260506184028 53 111 2.0 4.0 0.00 0.00 0.00 56 1012.1
20260506183328 53 108 2.0 4.0 0.00 0.00 0.00 55 1012.0
20260506182628 54 89 2.0 7.0 0.00 0.00 0.00 55 1012.1
20260506181928 54 121 2.0 4.0 0.00 0.00 0.00 55 1012.0